Time,TemperatureF,DewpointF,PressureIn,WindDirection,WindDirectionDegrees,WindSpeedMPH,WindSpeedGustMPH,Humidity,HourlyPrecipIn,Conditions,Clouds,dailyrainin,SoftwareType,DateUTC
2013-02-02 00:00:00,13.8,-2.0,30.22,North,353,9.6,9.6,49,0.00,,---,0.00,VWS V14.01,2013-02-02 05:00:00,
2013-02-02 00:03:00,13.8,-2.0,30.22,North,353,9.6,9.6,49,0.00,,---,0.00,VWS V14.01,2013-02-02 05:03:00,
2013-02-02 00:08:00,13.8,-2.0,30.22,North,353,9.6,9.6,49,0.00,,---,0.00,VWS V14.01,2013-02-02 05:08:00,
2013-02-02 00:13:00,14.0,-1.3,30.22,North,353,9.6,9.6,50,0.00,,---,0.00,VWS V14.01,2013-02-02 05:13:00,
2013-02-02 00:19:00,14.0,-1.3,30.22,North,353,9.6,9.6,50,0.00,,---,0.00,VWS V14.01,2013-02-02 05:19:00,
2013-02-02 00:24:00,14.2,-1.2,30.22,North,353,9.6,9.6,50,0.00,,---,0.00,VWS V14.01,2013-02-02 05:24:00,
2013-02-02 00:29:00,14.2,-1.2,30.22,North,353,9.6,9.6,50,0.00,,---,0.00,VWS V14.01,2013-02-02 05:29:00,
2013-02-02 00:34:00,14.2,-1.2,30.22,North,353,9.6,9.6,50,0.00,,---,0.00,VWS V14.01,2013-02-02 05:34:00,
2013-02-02 00:39:00,14.2,-1.2,30.22,North,353,9.6,9.6,50,0.00,,---,0.00,VWS V14.01,2013-02-02 05:39:00,
2013-02-02 00:44:00,14.2,-1.2,30.22,North,353,9.6,9.6,50,0.00,,---,0.00,VWS V14.01,2013-02-02 05:44:00,
2013-02-02 00:49:00,14.2,-1.2,30.19,North,353,9.6,9.6,50,0.00,,---,0.00,VWS V14.01,2013-02-02 05:49:00,
2013-02-02 00:54:00,14.2,-1.2,30.19,North,353,9.6,9.6,50,0.00,,---,0.00,VWS V14.01,2013-02-02 05:54:00,
2013-02-02 00:59:00,14.2,-1.2,30.19,North,353,9.6,9.6,50,0.00,,---,0.00,VWS V14.01,2013-02-02 05:59:00,
2013-02-02 01:04:00,14.2,-0.7,30.19,North,353,9.6,9.6,51,0.00,,---,0.00,VWS V14.01,2013-02-02 06:04:00,
2013-02-02 01:09:00,14.2,-0.7,30.19,North,353,9.6,9.6,51,0.00,,---,0.00,VWS V14.01,2013-02-02 06:09:00,
2013-02-02 01:14:00,14.0,-0.9,30.19,North,353,9.6,9.6,51,0.00,,---,0.00,VWS V14.01,2013-02-02 06:14:00,
2013-02-02 01:19:00,13.8,-1.0,30.19,North,353,9.6,9.6,51,0.00,,---,0.00,VWS V14.01,2013-02-02 06:19:00,
2013-02-02 01:24:00,13.6,-1.2,30.19,North,353,9.6,9.6,51,0.00,,---,0.00,VWS V14.01,2013-02-02 06:24:00,
2013-02-02 01:29:00,13.5,-1.4,30.19,North,353,9.6,9.6,51,0.00,,---,0.00,VWS V14.01,2013-02-02 06:29:00,
2013-02-02 01:34:00,13.3,-1.5,30.19,North,353,9.6,9.6,51,0.00,,---,0.00,VWS V14.01,2013-02-02 06:34:00,
2013-02-02 01:39:00,13.3,-1.5,30.19,North,353,9.6,9.6,51,0.00,,---,0.00,VWS V14.01,2013-02-02 06:39:00,
2013-02-02 01:44:00,13.3,-1.5,30.19,North,353,9.6,9.6,51,0.00,,---,0.00,VWS V14.01,2013-02-02 06:44:00,
2013-02-02 01:49:00,13.3,-1.5,30.19,North,353,9.6,9.6,51,0.00,,---,0.00,VWS V14.01,2013-02-02 06:49:00,
2013-02-02 01:54:00,13.3,-1.5,30.19,North,353,9.6,9.6,51,0.00,,---,0.00,VWS V14.01,2013-02-02 06:54:00,
2013-02-02 01:59:00,13.1,-1.7,30.19,North,353,9.6,9.6,51,0.00,,---,0.00,VWS V14.01,2013-02-02 06:59:00,
2013-02-02 02:04:00,13.1,-1.7,30.19,North,353,9.6,9.6,51,0.00,,---,0.00,VWS V14.01,2013-02-02 07:04:00,
2013-02-02 02:09:00,13.3,-1.5,30.19,North,353,9.6,9.6,51,0.00,,---,0.00,VWS V14.01,2013-02-02 07:09:00,
2013-02-02 02:14:00,13.3,-1.5,30.19,North,353,9.6,9.6,51,0.00,,---,0.00,VWS V14.01,2013-02-02 07:14:00,
2013-02-02 02:19:00,13.3,-1.5,30.19,North,353,9.6,9.6,51,0.00,,---,0.00,VWS V14.01,2013-02-02 07:19:00,
2013-02-02 02:24:00,13.5,-1.4,30.19,North,353,9.6,9.6,51,0.00,,---,0.00,VWS V14.01,2013-02-02 07:24:00,
2013-02-02 02:29:00,13.5,-1.4,30.19,North,353,9.6,9.6,51,0.00,,---,0.00,VWS V14.01,2013-02-02 07:29:00,
2013-02-02 02:34:00,13.6,-1.2,30.19,North,353,9.6,9.6,51,0.00,,---,0.00,VWS V14.01,2013-02-02 07:34:00,
2013-02-02 02:39:00,13.6,-1.2,30.19,North,353,9.6,9.6,51,0.00,,---,0.00,VWS V14.01,2013-02-02 07:39:00,
2013-02-02 02:44:00,13.8,-1.0,30.19,North,353,9.6,9.6,51,0.00,,---,0.00,VWS V14.01,2013-02-02 07:44:00,
2013-02-02 02:49:00,13.8,-1.0,30.19,North,353,9.6,9.6,51,0.00,,---,0.00,VWS V14.01,2013-02-02 07:49:00,
2013-02-02 02:54:00,14.0,0.4,30.19,North,353,9.6,9.6,54,0.00,,---,0.00,VWS V14.01,2013-02-02 07:54:00,
2013-02-02 02:59:00,14.2,0.2,30.19,North,353,9.6,9.6,53,0.00,,---,0.00,VWS V14.01,2013-02-02 07:59:00,
2013-02-02 03:06:00,14.2,0.2,30.16,North,353,9.6,9.6,53,0.00,,---,0.00,VWS V14.01,2013-02-02 08:06:00,
2013-02-02 03:11:00,14.4,0.8,30.16,North,353,9.6,9.6,54,0.00,,---,0.00,VWS V14.01,2013-02-02 08:11:00,
2013-02-02 03:16:00,14.4,0.3,30.16,North,353,9.6,9.6,53,0.00,,---,0.00,VWS V14.01,2013-02-02 08:16:00,
2013-02-02 03:21:00,14.4,0.3,30.16,North,353,9.6,9.6,53,0.00,,---,0.00,VWS V14.01,2013-02-02 08:21:00,
2013-02-02 03:26:00,14.5,0.1,30.16,North,353,9.6,9.6,52,0.00,,---,0.00,VWS V14.01,2013-02-02 08:26:00,
2013-02-02 03:31:00,14.5,0.5,30.16,North,353,9.6,9.6,53,0.00,,---,0.00,VWS V14.01,2013-02-02 08:31:00,
2013-02-02 03:36:00,14.7,0.7,30.16,North,353,9.6,9.6,53,0.00,,---,0.00,VWS V14.01,2013-02-02 08:36:00,
2013-02-02 03:41:00,14.7,0.7,30.16,North,353,9.6,9.6,53,0.00,,---,0.00,VWS V14.01,2013-02-02 08:41:00,
2013-02-02 03:46:00,14.9,0.8,30.16,North,353,9.6,9.6,53,0.00,,---,0.00,VWS V14.01,2013-02-02 08:46:00,
2013-02-02 03:51:00,14.9,0.8,30.16,North,353,9.6,9.6,53,0.00,,---,0.00,VWS V14.01,2013-02-02 08:51:00,
2013-02-02 03:56:00,14.9,0.8,30.16,North,353,9.6,9.6,53,0.00,,---,0.00,VWS V14.01,2013-02-02 08:56:00,
2013-02-02 04:01:00,15.1,1.4,30.16,North,353,9.6,9.6,54,0.00,,---,0.00,VWS V14.01,2013-02-02 09:01:00,
2013-02-02 04:06:00,15.1,1.4,30.16,North,353,9.6,9.6,54,0.00,,---,0.00,VWS V14.01,2013-02-02 09:06:00,
2013-02-02 04:11:00,15.1,1.4,30.16,North,353,9.6,9.6,54,0.00,,---,0.00,VWS V14.01,2013-02-02 09:11:00,
2013-02-02 04:16:00,15.1,1.4,30.13,North,353,9.6,9.6,54,0.00,,---,0.00,VWS V14.01,2013-02-02 09:16:00,
2013-02-02 04:21:00,15.1,1.9,30.13,North,353,9.6,9.6,55,0.00,,---,0.00,VWS V14.01,2013-02-02 09:21:00,
2013-02-02 04:26:00,15.1,2.3,30.13,North,353,9.6,9.6,56,0.00,,---,0.00,VWS V14.01,2013-02-02 09:26:00,
2013-02-02 04:31:00,15.1,2.7,30.13,North,353,9.6,9.6,57,0.00,,---,0.00,VWS V14.01,2013-02-02 09:31:00,
2013-02-02 04:36:00,15.1,3.1,30.13,North,353,9.6,9.6,58,0.00,,---,0.00,VWS V14.01,2013-02-02 09:36:00,
2013-02-02 04:41:00,15.1,3.5,30.13,North,353,9.6,9.6,59,0.00,,---,0.00,VWS V14.01,2013-02-02 09:41:00,
2013-02-02 04:46:00,15.1,3.9,30.13,North,353,9.6,9.6,60,0.00,,---,0.00,VWS V14.01,2013-02-02 09:46:00,
2013-02-02 04:51:00,15.1,3.9,30.13,North,353,9.6,9.6,60,0.00,,---,0.00,VWS V14.01,2013-02-02 09:51:00,
2013-02-02 04:56:00,15.1,3.9,30.13,North,353,9.6,9.6,60,0.00,,---,0.00,VWS V14.01,2013-02-02 09:56:00,
2013-02-02 05:01:00,15.3,4.4,30.13,North,353,9.6,9.6,62,0.00,,---,0.00,VWS V14.01,2013-02-02 10:01:00,
2013-02-02 05:06:00,15.3,4.4,30.13,North,353,9.6,9.6,62,0.00,,---,0.00,VWS V14.01,2013-02-02 10:06:00,
2013-02-02 05:11:00,15.3,4.4,30.13,North,353,9.6,9.6,62,0.00,,---,0.00,VWS V14.01,2013-02-02 10:11:00,
2013-02-02 05:16:00,15.3,4.8,30.13,North,353,9.6,9.6,63,0.00,,---,0.00,VWS V14.01,2013-02-02 10:16:00,
2013-02-02 05:22:00,15.3,4.8,30.13,North,353,9.6,9.6,63,0.00,,---,0.00,VWS V14.01,2013-02-02 10:22:00,
2013-02-02 05:27:00,15.3,4.8,30.13,North,353,9.6,9.6,63,0.00,,---,0.00,VWS V14.01,2013-02-02 10:27:00,
2013-02-02 05:32:00,15.3,4.8,30.10,North,353,9.6,9.6,63,0.00,,---,0.00,VWS V14.01,2013-02-02 10:32:00,
2013-02-02 05:37:00,15.3,4.8,30.10,North,353,9.6,9.6,63,0.00,,---,0.00,VWS V14.01,2013-02-02 10:37:00,
2013-02-02 05:42:00,15.3,4.8,30.10,North,353,9.6,9.6,63,0.00,,---,0.00,VWS V14.01,2013-02-02 10:42:00,
2013-02-02 05:47:00,15.4,5.0,30.10,North,353,9.6,9.6,63,0.00,,---,0.00,VWS V14.01,2013-02-02 10:47:00,
2013-02-02 05:52:00,15.4,5.4,30.10,North,353,9.6,9.6,64,0.00,,---,0.00,VWS V14.01,2013-02-02 10:52:00,
2013-02-02 05:57:00,15.4,5.4,30.10,North,353,9.6,9.6,64,0.00,,---,0.00,VWS V14.01,2013-02-02 10:57:00,
2013-02-02 06:02:00,15.4,5.4,30.10,North,353,9.6,9.6,64,0.00,,---,0.00,VWS V14.01,2013-02-02 11:02:00,
2013-02-02 06:07:00,15.4,5.4,30.10,North,353,9.6,9.6,64,0.00,,---,0.00,VWS V14.01,2013-02-02 11:07:00,
2013-02-02 06:12:00,15.4,5.7,30.10,North,353,9.6,9.6,65,0.00,,---,0.00,VWS V14.01,2013-02-02 11:12:00,
2013-02-02 06:17:00,15.4,5.7,30.07,North,353,9.6,9.6,65,0.00,,---,0.00,VWS V14.01,2013-02-02 11:17:00,
2013-02-02 06:22:00,15.4,6.1,30.07,North,353,9.6,9.6,66,0.00,,---,0.00,VWS V14.01,2013-02-02 11:22:00,
2013-02-02 06:27:00,15.4,6.1,30.07,North,353,9.6,9.6,66,0.00,,---,0.00,VWS V14.01,2013-02-02 11:27:00,
2013-02-02 06:32:00,15.4,6.1,30.07,North,353,9.6,9.6,66,0.00,,---,0.00,VWS V14.01,2013-02-02 11:32:00,
2013-02-02 06:37:00,15.4,6.4,30.07,North,353,9.6,9.6,67,0.00,,---,0.00,VWS V14.01,2013-02-02 11:37:00,
2013-02-02 06:42:00,15.4,6.4,30.07,North,353,9.6,9.6,67,0.00,,---,0.00,VWS V14.01,2013-02-02 11:42:00,
2013-02-02 06:47:00,15.4,6.4,30.07,North,353,9.6,9.6,67,0.00,,---,0.00,VWS V14.01,2013-02-02 11:47:00,
2013-02-02 06:52:00,15.4,6.4,30.07,North,353,9.6,9.6,67,0.00,,---,0.00,VWS V14.01,2013-02-02 11:52:00,
2013-02-02 06:57:00,15.6,7.0,30.07,North,353,9.6,9.6,68,0.00,,---,0.00,VWS V14.01,2013-02-02 11:57:00,
2013-02-02 07:02:00,15.4,6.8,30.07,North,353,9.6,9.6,68,0.00,,---,0.00,VWS V14.01,2013-02-02 12:02:00,
2013-02-02 07:07:00,15.6,7.0,30.07,North,353,9.6,9.6,68,0.00,,---,0.00,VWS V14.01,2013-02-02 12:07:00,
2013-02-02 07:12:00,15.6,7.0,30.07,North,353,9.6,9.6,68,0.00,,---,0.00,VWS V14.01,2013-02-02 12:12:00,
2013-02-02 07:17:00,15.6,7.3,30.07,North,353,9.6,9.6,69,0.00,,---,0.00,VWS V14.01,2013-02-02 12:17:00,
2013-02-02 07:22:00,15.8,7.5,30.07,North,353,9.6,9.6,69,0.00,,---,0.00,VWS V14.01,2013-02-02 12:22:00,
2013-02-02 07:27:00,15.8,7.5,30.07,North,353,9.6,9.6,69,0.00,,---,0.00,VWS V14.01,2013-02-02 12:27:00,
2013-02-02 07:32:00,15.8,7.8,30.07,North,353,9.6,9.6,70,0.00,,---,0.00,VWS V14.01,2013-02-02 12:32:00,
2013-02-02 07:37:00,15.8,7.8,30.07,North,353,9.6,9.6,70,0.00,,---,0.00,VWS V14.01,2013-02-02 12:37:00,
2013-02-02 07:42:00,15.8,8.2,30.07,North,353,9.6,9.6,71,0.00,,---,0.00,VWS V14.01,2013-02-02 12:42:00,
2013-02-02 07:47:00,15.8,8.2,30.07,North,353,9.6,9.6,71,0.00,,---,0.00,VWS V14.01,2013-02-02 12:47:00,
2013-02-02 07:52:00,15.8,8.2,30.07,North,353,9.6,9.6,71,0.00,,---,0.00,VWS V14.01,2013-02-02 12:52:00,
2013-02-02 07:57:00,15.8,8.5,30.07,North,353,9.6,9.6,72,0.00,,---,0.00,VWS V14.01,2013-02-02 12:57:00,
2013-02-02 08:02:00,16.0,8.7,30.07,North,353,9.6,9.6,72,0.00,,---,0.00,VWS V14.01,2013-02-02 13:02:00,
2013-02-02 08:07:00,16.0,9.0,30.07,North,353,9.6,9.6,73,0.00,,---,0.00,VWS V14.01,2013-02-02 13:07:00,
2013-02-02 08:12:00,16.0,9.0,30.07,North,353,9.6,9.6,73,0.00,,---,0.00,VWS V14.01,2013-02-02 13:12:00,
2013-02-02 08:17:00,16.0,9.0,30.04,North,353,9.6,9.6,73,0.00,,---,0.00,VWS V14.01,2013-02-02 13:17:00,
2013-02-02 08:22:00,16.2,9.2,30.04,North,353,9.6,9.6,73,0.00,,---,0.00,VWS V14.01,2013-02-02 13:22:00,
2013-02-02 08:27:00,16.2,9.2,30.04,North,353,9.6,9.6,73,0.00,,---,0.00,VWS V14.01,2013-02-02 13:27:00,
2013-02-02 08:32:00,16.3,9.4,30.04,North,353,9.6,9.6,73,0.00,,---,0.00,VWS V14.01,2013-02-02 13:32:00,
2013-02-02 08:37:00,16.5,9.5,30.04,North,353,9.6,9.6,73,0.00,,---,0.00,VWS V14.01,2013-02-02 13:37:00,
2013-02-02 08:43:00,16.5,9.5,30.04,North,353,9.6,9.6,73,0.00,,---,0.00,VWS V14.01,2013-02-02 13:43:00,
2013-02-02 08:48:00,16.7,9.7,30.04,North,353,9.6,9.6,73,0.00,,---,0.00,VWS V14.01,2013-02-02 13:48:00,
2013-02-02 08:53:00,16.7,9.4,30.04,North,353,9.6,9.6,72,0.00,,---,0.00,VWS V14.01,2013-02-02 13:53:00,
2013-02-02 08:58:00,16.9,9.5,30.04,North,353,9.6,9.6,72,0.00,,---,0.00,VWS V14.01,2013-02-02 13:58:00,
2013-02-02 09:03:00,17.1,9.7,30.04,North,353,9.6,9.6,72,0.00,,---,0.00,VWS V14.01,2013-02-02 14:03:00,
2013-02-02 09:08:00,17.2,9.6,30.04,North,353,9.6,9.6,71,0.00,,---,0.00,VWS V14.01,2013-02-02 14:08:00,
2013-02-02 09:13:00,17.4,9.7,30.04,North,353,9.6,9.6,71,0.00,,---,0.00,VWS V14.01,2013-02-02 14:13:00,
2013-02-02 09:18:00,17.6,9.6,30.04,North,353,9.6,9.6,70,0.00,,---,0.00,VWS V14.01,2013-02-02 14:18:00,
2013-02-02 09:23:00,17.8,9.4,30.04,North,353,9.6,9.6,69,0.00,,---,0.00,VWS V14.01,2013-02-02 14:23:00,
2013-02-02 09:28:00,18.0,9.6,30.04,North,353,9.6,9.6,69,0.00,,---,0.00,VWS V14.01,2013-02-02 14:28:00,
2013-02-02 09:33:00,18.1,9.4,30.04,North,353,9.6,9.6,68,0.00,,---,0.00,VWS V14.01,2013-02-02 14:33:00,
2013-02-02 09:38:00,18.3,9.2,30.04,North,353,9.6,9.6,67,0.00,,---,0.00,VWS V14.01,2013-02-02 14:38:00,
2013-02-02 09:43:00,18.3,8.8,30.04,North,353,9.6,9.6,66,0.00,,---,0.00,VWS V14.01,2013-02-02 14:43:00,
2013-02-02 09:48:00,18.5,8.6,30.04,North,353,9.6,9.6,65,0.00,,---,0.00,VWS V14.01,2013-02-02 14:48:00,
2013-02-02 09:53:00,18.7,8.8,30.04,North,353,9.6,9.6,65,0.00,,---,0.00,VWS V14.01,2013-02-02 14:53:00,
2013-02-02 09:58:00,19.0,8.8,30.04,North,353,9.6,9.6,64,0.00,,---,0.00,VWS V14.01,2013-02-02 14:58:00,
2013-02-02 10:03:00,19.2,8.6,30.01,North,353,9.6,9.6,63,0.00,,---,0.00,VWS V14.01,2013-02-02 15:03:00,
2013-02-02 10:08:00,19.4,8.8,30.01,North,353,9.6,9.6,63,0.00,,---,0.00,VWS V14.01,2013-02-02 15:08:00,
2013-02-02 10:13:00,19.6,8.5,30.01,North,353,9.6,9.6,62,0.00,,---,0.00,VWS V14.01,2013-02-02 15:13:00,
2013-02-02 10:18:00,19.8,8.7,30.01,North,353,9.6,9.6,62,0.00,,---,0.00,VWS V14.01,2013-02-02 15:18:00,
2013-02-02 10:23:00,19.9,8.5,30.01,North,353,9.6,9.6,60,0.00,,---,0.00,VWS V14.01,2013-02-02 15:23:00,
2013-02-02 10:28:00,20.1,8.6,30.01,North,353,9.6,9.6,60,0.00,,---,0.00,VWS V14.01,2013-02-02 15:28:00,
2013-02-02 10:33:00,20.3,8.4,30.01,North,353,9.6,9.6,59,0.00,,---,0.00,VWS V14.01,2013-02-02 15:33:00,
2013-02-02 10:38:00,20.5,8.6,30.01,North,353,9.6,9.6,59,0.00,,---,0.00,VWS V14.01,2013-02-02 15:38:00,
2013-02-02 10:43:00,20.5,8.6,30.01,North,353,9.6,9.6,59,0.00,,---,0.00,VWS V14.01,2013-02-02 15:43:00,
2013-02-02 10:48:00,20.7,8.8,30.01,North,353,9.6,9.6,59,0.00,,---,0.00,VWS V14.01,2013-02-02 15:48:00,
2013-02-02 10:54:00,20.8,8.9,30.01,North,353,9.6,9.6,59,0.00,,---,0.00,VWS V14.01,2013-02-02 15:54:00,
2013-02-02 10:59:00,20.8,8.5,30.01,North,353,9.6,9.6,58,0.00,,---,0.00,VWS V14.01,2013-02-02 15:59:00,
2013-02-02 11:04:00,21.2,8.9,30.01,North,353,9.6,9.6,58,0.00,,---,0.00,VWS V14.01,2013-02-02 16:04:00,
2013-02-02 11:09:00,21.6,9.2,30.01,North,353,9.6,9.6,58,0.00,,---,0.00,VWS V14.01,2013-02-02 16:09:00,
2013-02-02 11:14:00,21.9,9.1,30.01,North,353,9.6,9.6,57,0.00,,---,0.00,VWS V14.01,2013-02-02 16:14:00,
2013-02-02 11:19:00,21.9,9.1,30.01,North,353,9.6,9.6,57,0.00,,---,0.00,VWS V14.01,2013-02-02 16:19:00,
2013-02-02 11:24:00,21.7,8.5,30.01,North,353,9.6,9.6,56,0.00,,---,0.00,VWS V14.01,2013-02-02 16:24:00,
2013-02-02 11:29:00,21.7,9.0,30.01,North,353,9.6,9.6,57,0.00,,---,0.00,VWS V14.01,2013-02-02 16:29:00,
2013-02-02 11:34:00,21.9,9.1,29.98,North,353,9.6,9.6,57,0.00,,---,0.00,VWS V14.01,2013-02-02 16:34:00,
2013-02-02 11:39:00,22.3,9.5,29.98,North,353,9.6,9.6,57,0.00,,---,0.00,VWS V14.01,2013-02-02 16:39:00,
2013-02-02 11:44:00,22.5,9.6,29.98,North,353,9.6,9.6,57,0.00,,---,0.00,VWS V14.01,2013-02-02 16:44:00,
2013-02-02 11:49:00,22.8,9.6,29.98,North,353,9.6,9.6,56,0.00,,---,0.00,VWS V14.01,2013-02-02 16:49:00,
2013-02-02 11:54:00,22.8,9.6,29.98,North,353,9.6,9.6,56,0.00,,---,0.00,VWS V14.01,2013-02-02 16:54:00,
2013-02-02 11:59:00,23.4,10.1,29.98,North,353,9.6,9.6,56,0.00,,---,0.00,VWS V14.01,2013-02-02 16:59:00,
2013-02-02 12:04:00,23.9,9.7,29.98,North,353,9.6,9.6,54,0.00,,---,0.00,VWS V14.01,2013-02-02 17:04:00,
2013-02-02 12:09:00,24.1,9.9,29.98,North,353,9.6,9.6,54,0.00,,---,0.00,VWS V14.01,2013-02-02 17:09:00,
2013-02-02 12:14:00,24.1,9.4,29.98,North,353,9.6,9.6,53,0.00,,---,0.00,VWS V14.01,2013-02-02 17:14:00,
2013-02-02 12:19:00,24.3,10.0,29.98,North,353,9.6,9.6,54,0.00,,---,0.00,VWS V14.01,2013-02-02 17:19:00,
2013-02-02 12:24:00,24.6,9.9,29.98,North,353,9.6,9.6,53,0.00,,---,0.00,VWS V14.01,2013-02-02 17:24:00,
2013-02-02 12:29:00,24.8,10.1,29.98,North,353,9.6,9.6,53,0.00,,---,0.00,VWS V14.01,2013-02-02 17:29:00,
2013-02-02 12:34:00,24.3,9.1,29.95,North,353,9.6,9.6,52,0.00,,---,0.00,VWS V14.01,2013-02-02 17:34:00,
2013-02-02 12:39:00,24.3,9.1,29.95,North,353,9.6,9.6,52,0.00,,---,0.00,VWS V14.01,2013-02-02 17:39:00,
2013-02-02 12:44:00,24.3,9.6,29.95,North,353,9.6,9.6,53,0.00,,---,0.00,VWS V14.01,2013-02-02 17:44:00,
2013-02-02 12:49:00,24.4,9.7,29.95,North,353,9.6,9.6,53,0.00,,---,0.00,VWS V14.01,2013-02-02 17:49:00,
2013-02-02 12:54:00,24.3,10.0,29.95,North,353,9.6,9.6,54,0.00,,---,0.00,VWS V14.01,2013-02-02 17:54:00,
2013-02-02 12:59:00,24.4,10.2,29.95,North,353,9.6,9.6,54,0.00,,---,0.00,VWS V14.01,2013-02-02 17:59:00,
2013-02-02 13:04:00,24.4,10.2,29.95,North,353,9.6,9.6,54,0.00,,---,0.00,VWS V14.01,2013-02-02 18:04:00,
2013-02-02 13:09:00,24.4,10.2,29.95,North,353,9.6,9.6,54,0.00,,---,0.00,VWS V14.01,2013-02-02 18:09:00,
2013-02-02 13:14:00,24.1,9.9,29.95,North,353,9.6,9.6,54,0.00,,---,0.00,VWS V14.01,2013-02-02 18:14:00,
2013-02-02 13:19:00,24.1,10.3,29.95,North,353,9.6,9.6,55,0.00,,---,0.00,VWS V14.01,2013-02-02 18:19:00,
2013-02-02 13:24:00,24.1,10.7,29.95,North,353,9.6,9.6,56,0.00,,---,0.00,VWS V14.01,2013-02-02 18:24:00,
2013-02-02 13:30:00,24.1,10.7,29.95,North,353,9.6,9.6,56,0.00,,---,0.00,VWS V14.01,2013-02-02 18:30:00,
2013-02-02 13:35:00,23.9,10.6,29.92,North,353,9.6,9.6,56,0.00,,---,0.00,VWS V14.01,2013-02-02 18:35:00,
2013-02-02 13:40:00,23.9,10.6,29.92,North,353,9.6,9.6,56,0.00,,---,0.00,VWS V14.01,2013-02-02 18:40:00,
2013-02-02 13:45:00,24.1,11.2,29.95,North,353,9.6,9.6,57,0.00,,---,0.00,VWS V14.01,2013-02-02 18:45:00,
2013-02-02 13:50:00,24.1,11.6,29.95,North,353,9.6,9.6,58,0.00,,---,0.00,VWS V14.01,2013-02-02 18:50:00,
2013-02-02 13:55:00,24.1,11.6,29.95,North,353,9.6,9.6,58,0.00,,---,0.00,VWS V14.01,2013-02-02 18:55:00,
2013-02-02 14:00:00,24.3,11.8,29.95,North,353,9.6,9.6,58,0.00,,---,0.00,VWS V14.01,2013-02-02 19:00:00,
2013-02-02 14:05:00,24.6,11.7,29.95,North,353,9.6,9.6,57,0.00,,---,0.00,VWS V14.01,2013-02-02 19:05:00,
2013-02-02 14:10:00,24.8,11.8,29.95,North,353,9.6,9.6,57,0.00,,---,0.00,VWS V14.01,2013-02-02 19:10:00,
2013-02-02 14:15:00,24.8,11.8,29.95,North,353,9.6,9.6,57,0.00,,---,0.00,VWS V14.01,2013-02-02 19:15:00,
2013-02-02 14:20:00,25.0,11.6,29.95,North,353,9.6,9.6,56,0.00,,---,0.00,VWS V14.01,2013-02-02 19:20:00,
2013-02-02 14:25:00,25.0,11.6,29.95,North,353,9.6,9.6,56,0.00,,---,0.00,VWS V14.01,2013-02-02 19:25:00,
2013-02-02 14:30:00,24.8,11.8,29.95,North,353,9.6,9.6,57,0.00,,---,0.00,VWS V14.01,2013-02-02 19:30:00,
2013-02-02 14:35:00,24.6,11.7,29.95,North,353,9.6,9.6,57,0.00,,---,0.00,VWS V14.01,2013-02-02 19:35:00,
2013-02-02 14:40:00,24.6,11.7,29.95,North,353,9.6,9.6,57,0.00,,---,0.00,VWS V14.01,2013-02-02 19:40:00,
2013-02-02 14:45:00,24.6,11.7,29.95,North,353,9.6,9.6,57,0.00,,---,0.00,VWS V14.01,2013-02-02 19:45:00,
2013-02-02 14:50:00,24.6,11.7,29.95,North,353,9.6,9.6,57,0.00,,---,0.00,VWS V14.01,2013-02-02 19:50:00,
2013-02-02 14:55:00,24.6,11.7,29.95,North,353,9.6,9.6,57,0.00,,---,0.00,VWS V14.01,2013-02-02 19:55:00,
2013-02-02 15:00:00,24.8,11.8,29.92,North,353,9.6,9.6,57,0.00,,---,0.00,VWS V14.01,2013-02-02 20:00:00,
2013-02-02 15:05:00,25.0,12.0,29.92,North,353,9.6,9.6,57,0.00,,---,0.00,VWS V14.01,2013-02-02 20:05:00,
2013-02-02 15:10:00,24.8,11.8,29.92,North,353,9.6,9.6,57,0.00,,---,0.00,VWS V14.01,2013-02-02 20:10:00,
2013-02-02 15:15:00,25.0,11.6,29.92,North,353,9.6,9.6,56,0.00,,---,0.00,VWS V14.01,2013-02-02 20:15:00,
2013-02-02 15:20:00,25.3,11.9,29.92,North,353,9.6,9.6,56,0.00,,---,0.00,VWS V14.01,2013-02-02 20:20:00,
2013-02-02 15:25:00,25.3,11.9,29.92,North,353,9.6,9.6,56,0.00,,---,0.00,VWS V14.01,2013-02-02 20:25:00,
2013-02-02 15:30:00,25.3,11.9,29.95,North,353,9.6,9.6,56,0.00,,---,0.00,VWS V14.01,2013-02-02 20:30:00,
2013-02-02 15:35:00,25.3,11.9,29.95,North,353,9.6,9.6,56,0.00,,---,0.00,VWS V14.01,2013-02-02 20:35:00,
2013-02-02 15:40:00,25.5,12.1,29.95,North,353,9.6,9.6,56,0.00,,---,0.00,VWS V14.01,2013-02-02 20:40:00,
2013-02-02 15:45:00,25.3,11.9,29.95,North,353,9.6,9.6,56,0.00,,---,0.00,VWS V14.01,2013-02-02 20:45:00,
2013-02-02 15:50:00,25.2,11.8,29.95,North,353,9.6,9.6,56,0.00,,---,0.00,VWS V14.01,2013-02-02 20:50:00,
2013-02-02 15:55:00,25.0,12.0,29.95,North,353,9.6,9.6,57,0.00,,---,0.00,VWS V14.01,2013-02-02 20:55:00,
2013-02-02 16:00:00,25.2,12.2,29.95,North,353,9.6,9.6,57,0.00,,---,0.00,VWS V14.01,2013-02-02 21:00:00,
2013-02-02 16:05:00,25.3,12.3,29.95,North,353,9.6,9.6,57,0.00,,---,0.00,VWS V14.01,2013-02-02 21:05:00,
2013-02-02 16:10:00,25.2,11.8,29.95,North,353,9.6,9.6,56,0.00,,---,0.00,VWS V14.01,2013-02-02 21:10:00,
2013-02-02 16:15:00,25.0,12.0,29.95,North,353,9.6,9.6,57,0.00,,---,0.00,VWS V14.01,2013-02-02 21:15:00,
2013-02-02 16:21:00,24.8,12.3,29.95,North,353,9.6,9.6,58,0.00,,---,0.00,VWS V14.01,2013-02-02 21:21:00,
2013-02-02 16:26:00,24.8,12.3,29.95,North,353,9.6,9.6,58,0.00,,---,0.00,VWS V14.01,2013-02-02 21:26:00,
2013-02-02 16:31:00,24.6,12.5,29.95,North,353,9.6,9.6,59,0.00,,---,0.00,VWS V14.01,2013-02-02 21:31:00,
2013-02-02 16:36:00,24.4,12.3,29.95,North,353,9.6,9.6,59,0.00,,---,0.00,VWS V14.01,2013-02-02 21:36:00,
2013-02-02 16:41:00,24.4,12.7,29.95,North,353,9.6,9.6,60,0.00,,---,0.00,VWS V14.01,2013-02-02 21:41:00,
2013-02-02 16:46:00,24.4,12.7,29.95,North,353,9.6,9.6,60,0.00,,---,0.00,VWS V14.01,2013-02-02 21:46:00,
2013-02-02 16:51:00,24.3,12.6,29.95,North,353,9.6,9.6,60,0.00,,---,0.00,VWS V14.01,2013-02-02 21:51:00,
2013-02-02 16:56:00,24.1,12.8,29.95,North,353,9.6,9.6,62,0.00,,---,0.00,VWS V14.01,2013-02-02 21:56:00,
2013-02-02 17:01:00,23.9,13.0,29.95,North,353,9.6,9.6,63,0.00,,---,0.00,VWS V14.01,2013-02-02 22:01:00,
2013-02-02 17:06:00,23.9,13.4,29.95,North,353,9.6,9.6,64,0.00,,---,0.00,VWS V14.01,2013-02-02 22:06:00,
2013-02-02 17:11:00,23.7,13.2,29.95,North,353,9.6,9.6,64,0.00,,---,0.00,VWS V14.01,2013-02-02 22:11:00,
2013-02-02 17:16:00,23.7,13.2,29.95,North,353,9.6,9.6,64,0.00,,---,0.00,VWS V14.01,2013-02-02 22:16:00,
2013-02-02 17:21:00,23.7,13.6,29.95,North,353,9.6,9.6,65,0.00,,---,0.00,VWS V14.01,2013-02-02 22:21:00,
2013-02-02 17:26:00,23.5,13.4,29.95,North,353,9.6,9.6,65,0.00,,---,0.00,VWS V14.01,2013-02-02 22:26:00,
2013-02-02 17:31:00,23.5,13.8,29.95,North,353,9.6,9.6,66,0.00,,---,0.00,VWS V14.01,2013-02-02 22:31:00,
2013-02-02 17:36:00,23.5,13.8,29.95,North,353,9.6,9.6,66,0.00,,---,0.00,VWS V14.01,2013-02-02 22:36:00,
2013-02-02 17:41:00,23.5,14.6,29.95,North,353,9.6,9.6,68,0.00,,---,0.00,VWS V14.01,2013-02-02 22:41:00,
2013-02-02 17:46:00,23.2,14.2,29.95,North,353,9.6,9.6,68,0.00,,---,0.00,VWS V14.01,2013-02-02 22:46:00,
2013-02-02 17:51:00,22.8,13.9,29.95,North,353,9.6,9.6,68,0.00,,---,0.00,VWS V14.01,2013-02-02 22:51:00,
2013-02-02 17:56:00,22.5,13.2,29.95,North,353,9.6,9.6,67,0.00,,---,0.00,VWS V14.01,2013-02-02 22:56:00,
2013-02-02 18:01:00,21.9,12.6,29.98,North,353,9.6,9.6,67,0.00,,---,0.00,VWS V14.01,2013-02-02 23:01:00,
2013-02-02 18:06:00,21.7,12.8,29.98,North,353,9.6,9.6,68,0.00,,---,0.00,VWS V14.01,2013-02-02 23:06:00,
2013-02-02 18:11:00,21.6,12.7,29.98,North,353,9.6,9.6,68,0.00,,---,0.00,VWS V14.01,2013-02-02 23:11:00,
2013-02-02 18:16:00,21.2,12.3,29.98,North,353,9.6,9.6,68,0.00,,---,0.00,VWS V14.01,2013-02-02 23:16:00,
2013-02-02 18:21:00,21.0,12.1,29.98,North,353,9.6,9.6,68,0.00,,---,0.00,VWS V14.01,2013-02-02 23:21:00,
2013-02-02 18:26:00,20.8,11.6,29.98,North,353,9.6,9.6,67,0.00,,---,0.00,VWS V14.01,2013-02-02 23:26:00,
2013-02-02 18:31:00,20.7,11.4,29.98,North,353,9.6,9.6,67,0.00,,---,0.00,VWS V14.01,2013-02-02 23:31:00,
2013-02-02 18:36:00,20.7,11.4,29.98,North,353,9.6,9.6,67,0.00,,---,0.00,VWS V14.01,2013-02-02 23:36:00,
2013-02-02 18:41:00,20.5,11.3,29.98,North,353,9.6,9.6,67,0.00,,---,0.00,VWS V14.01,2013-02-02 23:41:00,
2013-02-02 18:46:00,20.5,11.3,29.98,North,353,9.6,9.6,67,0.00,,---,0.00,VWS V14.01,2013-02-02 23:46:00,
2013-02-02 18:51:00,20.3,11.1,29.98,North,353,9.6,9.6,67,0.00,,---,0.00,VWS V14.01,2013-02-02 23:51:00,
2013-02-02 18:56:00,20.1,10.6,29.98,North,353,9.6,9.6,66,0.00,,---,0.00,VWS V14.01,2013-02-02 23:56:00,
2013-02-02 19:01:00,19.9,10.4,29.98,North,353,9.6,9.6,66,0.00,,---,0.00,VWS V14.01,2013-02-03 00:01:00,
2013-02-02 19:06:00,19.9,10.4,29.98,North,353,9.6,9.6,66,0.00,,---,0.00,VWS V14.01,2013-02-03 00:06:00,
2013-02-02 19:11:00,19.8,9.9,29.98,North,353,9.6,9.6,65,0.00,,---,0.00,VWS V14.01,2013-02-03 00:11:00,
2013-02-02 19:16:00,19.6,9.3,29.98,North,353,9.6,9.6,64,0.00,,---,0.00,VWS V14.01,2013-02-03 00:16:00,
2013-02-02 19:21:00,19.4,8.8,29.98,North,353,9.6,9.6,63,0.00,,---,0.00,VWS V14.01,2013-02-03 00:21:00,
2013-02-02 19:26:00,19.2,8.2,29.98,North,353,9.6,9.6,62,0.00,,---,0.00,VWS V14.01,2013-02-03 00:26:00,
2013-02-02 19:31:00,19.0,8.0,29.98,North,353,9.6,9.6,62,0.00,,---,0.00,VWS V14.01,2013-02-03 00:31:00,
2013-02-02 19:37:00,18.9,7.5,29.98,North,353,9.6,9.6,60,0.00,,---,0.00,VWS V14.01,2013-02-03 00:37:00,
2013-02-02 19:42:00,18.7,7.3,29.98,North,353,9.6,9.6,60,0.00,,---,0.00,VWS V14.01,2013-02-03 00:42:00,
2013-02-02 19:47:00,18.7,7.3,29.98,North,353,9.6,9.6,60,0.00,,---,0.00,VWS V14.01,2013-02-03 00:47:00,
2013-02-02 19:52:00,18.5,6.7,29.98,North,353,9.6,9.6,59,0.00,,---,0.00,VWS V14.01,2013-02-03 00:52:00,
2013-02-02 19:57:00,18.5,6.7,29.98,North,353,9.6,9.6,59,0.00,,---,0.00,VWS V14.01,2013-02-03 00:57:00,
2013-02-02 20:02:00,18.5,6.3,29.98,North,353,9.6,9.6,58,0.00,,---,0.00,VWS V14.01,2013-02-03 01:02:00,
2013-02-02 20:07:00,18.3,6.2,29.98,North,353,9.6,9.6,58,0.00,,---,0.00,VWS V14.01,2013-02-03 01:07:00,
2013-02-02 20:12:00,18.3,6.2,29.98,North,353,9.6,9.6,58,0.00,,---,0.00,VWS V14.01,2013-02-03 01:12:00,
2013-02-02 20:17:00,18.1,6.0,29.98,North,353,9.6,9.6,58,0.00,,---,0.00,VWS V14.01,2013-02-03 01:17:00,
2013-02-02 20:22:00,18.1,6.0,29.98,North,353,9.6,9.6,58,0.00,,---,0.00,VWS V14.01,2013-02-03 01:22:00,
2013-02-02 20:27:00,18.0,5.8,29.98,North,353,9.6,9.6,58,0.00,,---,0.00,VWS V14.01,2013-02-03 01:27:00,
2013-02-02 20:32:00,17.8,5.6,30.01,North,353,9.6,9.6,58,0.00,,---,0.00,VWS V14.01,2013-02-03 01:32:00,
2013-02-02 20:37:00,17.8,5.6,30.01,North,353,9.6,9.6,58,0.00,,---,0.00,VWS V14.01,2013-02-03 01:37:00,
2013-02-02 20:42:00,17.6,5.5,30.01,North,353,9.6,9.6,58,0.00,,---,0.00,VWS V14.01,2013-02-03 01:42:00,
2013-02-02 20:47:00,17.6,5.5,30.01,North,353,9.6,9.6,58,0.00,,---,0.00,VWS V14.01,2013-02-03 01:47:00,
2013-02-02 20:52:00,17.6,5.5,30.01,North,353,9.6,9.6,58,0.00,,---,0.00,VWS V14.01,2013-02-03 01:52:00,
2013-02-02 20:57:00,17.6,5.5,30.01,North,353,9.6,9.6,58,0.00,,---,0.00,VWS V14.01,2013-02-03 01:57:00,
2013-02-02 21:02:00,17.4,5.3,30.01,North,353,9.6,9.6,58,0.00,,---,0.00,VWS V14.01,2013-02-03 02:02:00,
2013-02-02 21:07:00,17.2,5.1,30.01,North,353,9.6,9.6,58,0.00,,---,0.00,VWS V14.01,2013-02-03 02:07:00,
2013-02-02 21:12:00,17.1,5.0,30.01,North,353,9.6,9.6,58,0.00,,---,0.00,VWS V14.01,2013-02-03 02:12:00,
2013-02-02 21:17:00,17.1,5.0,30.01,North,353,9.6,9.6,58,0.00,,---,0.00,VWS V14.01,2013-02-03 02:17:00,
2013-02-02 21:22:00,16.9,4.8,30.01,North,353,9.6,9.6,58,0.00,,---,0.00,VWS V14.01,2013-02-03 02:22:00,
2013-02-02 21:27:00,16.9,4.8,30.01,North,353,9.6,9.6,58,0.00,,---,0.00,VWS V14.01,2013-02-03 02:27:00,
2013-02-02 21:32:00,16.7,4.6,30.01,North,353,9.6,9.6,58,0.00,,---,0.00,VWS V14.01,2013-02-03 02:32:00,
2013-02-02 21:37:00,16.5,4.4,30.01,North,353,9.6,9.6,58,0.00,,---,0.00,VWS V14.01,2013-02-03 02:37:00,
2013-02-02 21:42:00,16.3,4.3,30.01,North,353,9.6,9.6,58,0.00,,---,0.00,VWS V14.01,2013-02-03 02:42:00,
2013-02-02 21:47:00,16.2,4.1,30.01,North,353,9.6,9.6,58,0.00,,---,0.00,VWS V14.01,2013-02-03 02:47:00,
2013-02-02 21:52:00,16.0,3.5,30.01,North,353,9.6,9.6,57,0.00,,---,0.00,VWS V14.01,2013-02-03 02:52:00,
2013-02-02 21:57:00,15.8,3.4,30.01,North,353,9.6,9.6,57,0.00,,---,0.00,VWS V14.01,2013-02-03 02:57:00,
2013-02-02 22:02:00,15.6,3.2,29.98,North,353,9.6,9.6,57,0.00,,---,0.00,VWS V14.01,2013-02-03 03:02:00,
2013-02-02 22:07:00,15.4,3.0,29.98,North,353,9.6,9.6,57,0.00,,---,0.00,VWS V14.01,2013-02-03 03:07:00,
2013-02-02 22:12:00,15.3,2.5,29.98,North,353,9.6,9.6,56,0.00,,---,0.00,VWS V14.01,2013-02-03 03:12:00,
2013-02-02 22:17:00,15.3,2.5,30.01,North,353,9.6,9.6,56,0.00,,---,0.00,VWS V14.01,2013-02-03 03:17:00,
2013-02-02 22:22:00,15.3,2.0,30.01,North,353,9.6,9.6,55,0.00,,---,0.00,VWS V14.01,2013-02-03 03:22:00,
2013-02-02 22:27:00,15.1,1.9,30.01,North,353,9.6,9.6,55,0.00,,---,0.00,VWS V14.01,2013-02-03 03:27:00,
2013-02-02 22:32:00,14.9,1.7,30.01,North,353,9.6,9.6,55,0.00,,---,0.00,VWS V14.01,2013-02-03 03:32:00,
2013-02-02 22:37:00,14.5,1.4,30.01,North,353,9.6,9.6,55,0.00,,---,0.00,VWS V14.01,2013-02-03 03:37:00,
2013-02-02 22:42:00,14.2,0.6,30.01,North,353,9.6,9.6,54,0.00,,---,0.00,VWS V14.01,2013-02-03 03:42:00,
2013-02-02 22:48:00,13.6,0.1,30.01,North,353,9.6,9.6,54,0.00,,---,0.00,VWS V14.01,2013-02-03 03:48:00,
2013-02-02 22:53:00,13.3,-0.2,30.01,North,353,9.6,9.6,54,0.00,,---,0.00,VWS V14.01,2013-02-03 03:53:00,
2013-02-02 22:58:00,12.7,-0.8,30.01,North,353,9.6,9.6,54,0.00,,---,0.00,VWS V14.01,2013-02-03 03:58:00,
2013-02-02 23:03:00,12.2,-1.3,30.01,North,353,9.6,9.6,54,0.00,,---,0.00,VWS V14.01,2013-02-03 04:03:00,
2013-02-02 23:08:00,11.8,-1.6,30.01,North,353,9.6,9.6,54,0.00,,---,0.00,VWS V14.01,2013-02-03 04:08:00,
2013-02-02 23:13:00,11.3,-2.1,30.01,North,353,9.6,9.6,54,0.00,,---,0.00,VWS V14.01,2013-02-03 04:13:00,
2013-02-02 23:18:00,10.9,-2.4,30.01,North,353,9.6,9.6,54,0.00,,---,0.00,VWS V14.01,2013-02-03 04:18:00,
2013-02-02 23:23:00,10.6,-2.8,30.01,North,353,9.6,9.6,54,0.00,,---,0.00,VWS V14.01,2013-02-03 04:23:00,
2013-02-02 23:28:00,10.2,-3.1,30.01,North,353,9.6,9.6,54,0.00,,---,0.00,VWS V14.01,2013-02-03 04:28:00,
2013-02-02 23:33:00,9.9,-3.5,30.01,North,353,9.6,9.6,54,0.00,,---,0.00,VWS V14.01,2013-02-03 04:33:00,
2013-02-02 23:38:00,9.5,-3.8,30.01,North,353,9.6,9.6,54,0.00,,---,0.00,VWS V14.01,2013-02-03 04:38:00,
2013-02-02 23:43:00,9.1,-4.1,30.01,North,353,9.6,9.6,54,0.00,,---,0.00,VWS V14.01,2013-02-03 04:43:00,
2013-02-02 23:48:00,8.8,-4.5,30.01,North,353,9.6,9.6,54,0.00,,---,0.00,VWS V14.01,2013-02-03 04:48:00,
2013-02-02 23:53:00,8.6,-4.6,30.01,North,353,9.6,9.6,54,0.00,,---,0.00,VWS V14.01,2013-02-03 04:53:00,
2013-02-02 23:58:00,8.4,-4.8,30.01,North,353,9.6,9.6,54,0.00,,---,0.00,VWS V14.01,2013-02-03 04:58:00,